Location: Nebraska Star Party
(42.6000°N, 100.8833°W)
Time: 11:30:40
(UTC-05:00)

Amateur Radio Satellites - All Passes

Search period start: 28 May 2017 11:00
Search period end: 29 May 2017 11:00
Location: Nebraska Star Party, 42.6000°N, 100.8833°W

Satellite Date Start Highest point End Downlink Frequencies (MHz)
Time Altitude Azimuth
CUBEBUG 2 28 May 11:02:21 11:05:21 17° 296° (WNW) 11:08:23 437.445
YUBILEINY 28 May 11:05:42 11:09:41 13° 55° (NE) 11:13:39 435.215
UWE-3 28 May 11:08:08 11:11:44 23° 293° (WNW) 11:15:22 435.000/436.395/437.385
HO-68 28 May 11:16:46 11:21:46 21° 305° (NW) 11:26:47 435.675
EO-88 28 May 11:19:19 11:22:52 44° 99° (E) 11:26:23 145.990 - 145.960
RS-15 28 May 11:26:59 11:39:14 68° 51° (NE) 11:50:52 29.354- 29.394
NANOSAT C BR1 28 May 11:31:12 11:33:17 14° 62° (ENE) 11:35:21 145.865
Oscar 11 28 May 11:32:46 11:36:26 27° 292° (WNW) 11:40:04 .
POLYITAN 1 28 May 11:36:51 11:39:36 17° 64° (ENE) 11:42:21 437.675
DUCHIFAT 1 28 May 11:40:26 11:42:51 15° 64° (ENE) 11:45:16 145.980
DELFI C3 28 May 11:44:34 11:48:27 62° 285° (WNW) 11:52:19 145.870
TIGRISAT 28 May 11:44:50 11:48:34 29° 264° (W) 11:52:24 435.000
QB50P2 28 May 11:45:01 11:48:17 22° 67° (ENE) 11:51:35 145.880/145.840
NO-84 28 May 11:47:22 11:50:18 18° 345° (NNW) 11:53:09 435.350 FM
PRISM 28 May 11:49:34 11:52:22 18° 267° (W) 11:55:11 437.425
LO-87 28 May 11:56:59 11:59:14 16° 93° (E) 12:01:28 145.935 - 145.965
AO-73 28 May 12:03:12 12:05:11 13° 299° (WNW) 12:07:11 145.935
ESTCUBE 1 28 May 12:06:33 12:08:56 14° 90° (E) 12:11:18 437.505/2401.250
UNISAT 6 28 May 12:19:25 12:21:17 13° 271° (W) 12:23:10 437.425
FO-29 28 May 12:20:19 12:23:47 18° 270° (W) 12:27:20 435.910
EO-79 28 May 12:20:32 12:24:33 49° 72° (ENE) 12:28:38 145.935-145.965
AIST 2D 28 May 12:20:57 12:24:28 77° 257° (WSW) 12:28:02 435.315
AO-85 28 May 12:40:35 12:43:18 17° 42° (NE) 12:46:03 145.980
Oscar 19 28 May 12:44:59 12:47:04 12° 58° (ENE) 12:49:10 437.125/150
EO-88 28 May 12:54:21 12:56:09 13° 295° (WNW) 12:57:58 145.990 - 145.960
VELOX 1 28 May 12:54:44 12:55:50 11° 89° (E) 12:56:58 145.980
YUBILEINY 28 May 12:59:43 13:08:32 65° 78° (ENE) 13:17:17 435.215
NANOSAT C BR1 28 May 13:04:24 13:08:30 58° 259° (W) 13:12:39 145.865
POLYITAN 1 28 May 13:11:02 13:15:02 44° 261° (W) 13:19:04 437.675
DUCHIFAT 1 28 May 13:14:04 13:18:05 50° 260° (W) 13:22:11 145.980
QB50P2 28 May 13:20:07 13:23:54 32° 263° (W) 13:27:42 145.880/145.840
O/OREOS (USA 219) 28 May 13:20:50 13:24:08 19° 54° (NE) 13:27:24 437.305
BUGSAT 1 28 May 13:24:01 13:27:57 62° 74° (ENE) 13:31:57 437.445
NO-84 28 May 13:26:51 13:29:13 15° 6° (N) 13:31:30 435.350 FM
LO-87 28 May 13:29:34 13:32:45 31° 289° (WNW) 13:35:55 145.935 - 145.965
RS-15 28 May 13:40:19 13:50:58 39° 254° (WSW) 14:01:11 29.354- 29.394
ESTCUBE 1 28 May 13:41:40 13:46:06 57° 287° (WNW) 13:50:30 437.505/2401.250
BEESAT 2 28 May 13:57:43 14:00:00 14° 39° (NE) 14:02:17 435.950
EO-79 28 May 13:58:17 14:00:36 14° 269° (W) 14:02:55 145.935-145.965
SPROUT 28 May 14:06:55 14:11:12 72° 102° (ESE) 14:15:29 437.525
BEESAT 3 28 May 14:12:14 14:16:03 39° 51° (NE) 14:19:48 437.485
Gurwin Techsat 1B 28 May 14:14:48 14:19:52 48° 70° (ENE) 14:24:58 435.225
AO-85 28 May 14:20:00 14:23:59 59° 240° (WSW) 14:28:11 145.980
Oscar 19 28 May 14:20:22 14:25:35 86° 73° (ENE) 14:30:49 437.125/150
50 SAT 28 May 14:27:42 14:31:05 64° 101° (E) 14:34:26 437.505
VELOX 1 28 May 14:28:23 14:32:46 70° 286° (WNW) 14:37:07 145.980
UKube-1 28 May 14:45:12 14:49:18 41° 99° (E) 14:53:21 .
DX 1 28 May 14:57:04 15:01:26 83° 104° (ESE) 15:05:45 434.975-435.025
YUBILEINY 28 May 14:57:31 15:04:37 29° 278° (W) 15:11:45 435.215
O/OREOS (USA 219) 28 May 14:59:28 15:03:48 47° 253° (WSW) 15:08:05 437.305
BUGSAT 1 28 May 15:03:10 15:03:44 10° 271° (W) 15:04:18 437.445
NO-84 28 May 15:04:19 15:07:52 31° 28° (NNE) 15:11:08 435.350 FM
AO-7 28 May 15:05:34 15:12:54 37° 58° (ENE) 15:20:16 .
ITAMSAT 1 28 May 15:27:17 15:31:51 33° 66° (ENE) 15:36:26 435.822/435.867
BEESAT 2 28 May 15:34:12 15:38:18 79° 236° (WSW) 15:42:19 435.950
SPROUT 28 May 15:45:01 15:46:31 12° 299° (WNW) 15:48:00 437.525
BEESAT 3 28 May 15:50:25 15:53:22 20° 248° (WSW) 15:56:16 437.485
Gurwin Techsat 1B 28 May 15:55:55 16:00:02 23° 267° (W) 16:04:10 435.225
Oscar 19 28 May 16:03:52 16:05:33 11° 272° (W) 16:07:14 437.125/150
MOZHAYETS 4 28 May 16:07:24 16:10:24 17° 91° (E) 16:13:23
ITUPSAT 1 28 May 16:11:23 16:15:39 31° 96° (E) 16:19:54 437.325
UKube-1 28 May 16:21:59 16:25:01 19° 296° (WNW) 16:28:03 .
DX 1 28 May 16:36:07 16:36:56 10° 301° (WNW) 16:37:46 434.975-435.025
NO-84 28 May 16:41:59 16:45:30 39° 228° (SW) 16:48:44 435.350 FM
BEESAT 28 May 16:43:06 16:47:53 66° 102° (ESE) 16:52:38 436.000
AO-7 28 May 16:57:18 17:05:21 55° 257° (WSW) 17:13:30 .
CUBESAT XI-V 28 May 17:01:11 17:01:55 10° 88° (E) 17:02:38 437.345
ITAMSAT 1 28 May 17:06:41 17:11:16 32° 263° (W) 17:15:53 435.822/435.867
CUTE-I 28 May 17:40:24 17:43:13 15° 58° (ENE) 17:46:02 437.470
MOZHAYETS 4 28 May 17:43:20 17:47:51 51° 288° (WNW) 17:52:19
ITUPSAT 1 28 May 17:49:14 17:53:24 30° 293° (WNW) 17:57:34 437.325
XW-2F 28 May 17:53:48 17:55:27 12° 64° (ENE) 17:57:07 145.980 - 146.000
XW-2C 28 May 17:56:12 17:58:14 14° 64° (ENE) 18:00:16 145.795 - 145.815
KAITUO 1B 28 May 17:57:59 17:59:13 11° 63° (ENE) 18:00:26 145.475/437.950
HO-68 28 May 18:13:32 18:17:05 15° 50° (NE) 18:20:39 435.675
KKS-1 28 May 18:20:02 18:24:25 57° 101° (E) 18:28:47 437.445
DOVE 4 28 May 18:21:06 18:25:32 54° 74° (ENE) 18:29:46 437.250
BEESAT 28 May 18:22:21 18:25:06 15° 299° (WNW) 18:27:53 436.000
LilacSat-2 28 May 18:35:06 18:38:42 40° 72° (ENE) 18:42:21 437.200
CUBESAT XI-V 28 May 18:35:11 18:39:52 80° 285° (WNW) 18:44:28 437.345
STARS 28 May 18:44:34 18:48:47 44° 99° (E) 18:53:00 437.465
XW-2D 28 May 19:06:22 19:10:10 84° 258° (WSW) 19:14:02 145.860 - 145.880
XW-2A 28 May 19:13:57 19:14:45 11° 64° (ENE) 19:15:32 145.665 - 145.685
XW-2B 28 May 19:14:24 19:18:12 70° 259° (WSW) 19:22:03 145.730 - 145.750
NUDT-PHONESAT 28 May 19:17:08 19:20:51 83° 257° (WSW) 19:24:38 437.300
CUTE-I 28 May 19:17:15 19:22:34 82° 256° (WSW) 19:27:54 437.470
CUTE 1.7 + AOD 2 28 May 19:22:03 19:25:16 21° 66° (ENE) 19:28:31 437.475
XW-2F 28 May 19:25:25 19:29:07 52° 260° (W) 19:32:53 145.980 - 146.000
XW-2C 28 May 19:28:22 19:32:01 45° 261° (W) 19:35:44 145.795 - 145.815
KAITUO 1B 28 May 19:29:00 19:32:43 57° 260° (W) 19:36:29 145.475/437.950
PCSat 28 May 19:36:03 19:41:18 53° 114° (ESE) 19:46:35 145.827
Tancredo 1 28 May 19:51:01 19:53:29 22° 135° (SE) 19:55:57 437.200
HO-68 28 May 19:56:25 20:03:31 68° 70° (ENE) 20:10:40 435.675
KKS-1 28 May 19:57:56 20:00:30 15° 298° (WNW) 20:03:03 437.445
DOVE 4 28 May 20:01:05 20:03:30 14° 268° (W) 20:05:53 437.250
ZACube-1 28 May 20:04:23 20:04:56 10° 60° (ENE) 20:05:30 437.345
SEEDS 28 May 20:05:53 20:09:51 39° 71° (ENE) 20:13:49 437.485
LilacSat-2 28 May 20:10:57 20:13:10 15° 269° (W) 20:15:24 437.200
STARS 28 May 20:21:46 20:24:47 18° 296° (WNW) 20:27:49 437.465
CUBEBUG 2 28 May 20:23:26 20:27:24 44° 72° (ENE) 20:31:30 437.445
UWE-3 28 May 20:29:00 20:32:44 31° 69° (ENE) 20:36:33 435.000/436.395/437.385
XW-2A 28 May 20:43:50 20:47:04 45° 261° (W) 20:50:21 145.665 - 145.685
ISS 28 May 20:44:41 20:47:52 49° 141° (SE) 20:51:04 437.550
Oscar 11 28 May 20:52:06 20:55:37 24° 67° (ENE) 20:59:08 .
STRAND 1 28 May 20:54:11 20:59:13 50° 100° (E) 21:04:12 437.568
CUTE 1.7 + AOD 2 28 May 20:56:55 21:00:52 36° 263° (W) 21:04:51 437.475
AAUSAT CUBESAT 2 28 May 20:58:07 21:02:16 71° 76° (ENE) 21:06:27 437.432
PCSat 28 May 21:20:28 21:25:00 26° 314° (NW) 21:29:33 145.827
AO-73 28 May 21:20:51 21:25:01 60° 74° (ENE) 21:29:18 145.935
Tancredo 1 28 May 21:26:07 21:29:04 43° 332° (NNW) 21:32:02 437.200
ZACube-1 28 May 21:36:16 21:40:30 83° 257° (WSW) 21:44:52 437.345
SEEDS 28 May 21:42:41 21:45:40 19° 268° (W) 21:48:40 437.485
M-CUBED/EXP-1 PRIME 28 May 21:44:08 21:46:06 15° 99° (E) 21:48:03 437.505
HO-68 28 May 21:46:16 21:51:46 23° 268° (W) 21:57:20 435.675
EO-88 28 May 21:58:07 22:00:57 22° 68° (ENE) 22:03:49 145.990 - 145.960
CUBEBUG 2 28 May 22:01:46 22:04:18 16° 269° (W) 22:06:52 437.445
UWE-3 28 May 22:05:53 22:09:14 23° 267° (W) 22:12:39 435.000/436.395/437.385
ISS 28 May 22:21:32 22:24:30 29° 339° (NNW) 22:27:26 437.550
Oscar 11 28 May 22:27:43 22:31:35 31° 264° (W) 22:35:30 .
DELFI C3 28 May 22:29:58 22:33:57 78° 76° (ENE) 22:37:57 145.870
UNISAT 6 28 May 22:32:20 22:34:25 13° 90° (E) 22:36:30 437.425
STRAND 1 28 May 22:34:10 22:38:01 22° 297° (WNW) 22:41:52 437.568
SO-50 28 May 22:56:59 23:01:32 70° 122° (ESE) 23:06:04 436.795
AO-73 28 May 22:59:55 23:01:41 12° 271° (W) 23:03:27 145.935
Tancredo 1 28 May 23:03:19 23:05:23 16° 352° (N) 23:07:28 437.200
ESTCUBE 1 28 May 23:06:52 23:09:32 16° 63° (ENE) 23:12:12 437.505/2401.250
M-CUBED/EXP-1 PRIME 28 May 23:17:49 23:20:39 27° 295° (WNW) 23:23:28 437.505
FO-29 28 May 23:24:07 23:30:32 51° 100° (E) 23:37:40 435.910
PRISM 28 May 23:28:28 23:32:29 57° 101° (E) 23:36:28 437.425
EO-88 28 May 23:31:28 23:34:30 25° 264° (W) 23:37:35 145.990 - 145.960
TIGRISAT 28 May 23:34:27 23:38:59 52° 100° (E) 23:43:33 435.000
VELOX 1 28 May 23:52:42 23:54:23 12° 61° (ENE) 23:56:05 145.980
ISS 28 May 23:59:30 00:01:45 17° 359° (N) 00:04:00 437.550
LO-87 29 May 00:05:34 00:09:06 75° 258° (WSW) 00:12:39 145.935 - 145.965
UNISAT 6 29 May 00:06:56 00:11:32 68° 286° (WNW) 00:16:11 437.425
YUBILEINY 29 May 00:10:56 00:14:35 13° 73° (ENE) 00:18:14 435.215
SO-50 29 May 00:39:15 00:42:27 19° 320° (NW) 00:45:40 436.795
Tancredo 1 29 May 00:39:46 00:41:59 18° 12° (NNE) 00:44:13 437.200
ESTCUBE 1 29 May 00:41:23 00:45:51 59° 260° (W) 00:50:21 437.505/2401.250
NANOSAT C BR1 29 May 00:48:25 00:51:39 21° 94° (E) 00:54:51 145.865
POLYITAN 1 29 May 00:55:06 00:58:47 27° 96° (E) 01:02:25 437.675
DUCHIFAT 1 29 May 00:57:32 01:00:57 23° 95° (E) 01:04:21 145.980
SPROUT 29 May 01:00:33 01:04:42 58° 74° (ENE) 01:08:53 437.525
50 SAT 29 May 01:00:46 01:03:39 25° 70° (ENE) 01:06:33 437.505
QB50P2 29 May 01:03:43 01:07:41 36° 97° (E) 01:11:38 145.880/145.840
PRISM 29 May 01:05:22 01:07:17 13° 298° (WNW) 01:09:11 437.425
FO-29 29 May 01:09:44 01:15:22 32° 294° (WNW) 01:21:33 435.910
TIGRISAT 29 May 01:12:10 01:15:16 18° 296° (WNW) 01:18:23 435.000
AIST 2D 29 May 01:18:21 01:21:55 68° 283° (WNW) 01:25:27 435.315
VELOX 1 29 May 01:25:50 01:30:14 74° 258° (WSW) 01:34:39 145.980
ISS 29 May 01:36:13 01:39:03 26° 19° (NNE) 01:41:53 437.550
EO-79 29 May 01:39:42 01:43:59 85° 100° (E) 01:48:15 145.935-145.965
UKube-1 29 May 01:40:05 01:44:05 38° 70° (ENE) 01:48:05 .
RS-15 29 May 01:51:07 02:01:47 39° 106° (ESE) 02:12:41 29.354- 29.394
DX 1 29 May 01:52:50 01:57:10 78° 75° (ENE) 02:01:31 434.975-435.025
YUBILEINY 29 May 02:01:01 02:09:40 72° 93° (E) 02:18:24 435.215
Tancredo 1 29 May 02:15:09 02:18:12 60° 30° (NNE) 02:21:14 437.200
BEESAT 29 May 02:16:59 02:17:41 10° 57° (ENE) 02:18:23 436.000
NANOSAT C BR1 29 May 02:23:33 02:27:26 35° 290° (WNW) 02:31:18 145.865
POLYITAN 1 29 May 02:30:51 02:34:29 27° 292° (WNW) 02:38:07 437.675
Gurwin Techsat 1B 29 May 02:31:15 02:34:44 18° 91° (E) 02:38:13 435.225
Oscar 19 29 May 02:31:43 02:36:08 28° 95° (E) 02:40:31 437.125/150
DUCHIFAT 1 29 May 02:32:53 02:36:37 31° 291° (WNW) 02:40:23 145.980
50 SAT 29 May 02:34:03 02:36:30 18° 266° (W) 02:38:58 437.505
SPROUT 29 May 02:39:10 02:40:58 12° 270° (W) 02:42:47 437.525
BUGSAT 1 29 May 02:39:50 02:44:00 82° 282° (WNW) 02:48:11 437.445
QB50P2 29 May 02:40:02 02:43:14 21° 294° (WNW) 02:46:26 145.880/145.840
PCSat 29 May 02:41:59 02:43:40 11° 33° (NNE) 02:45:21 145.827
MOZHAYETS 4 29 May 03:10:04 03:13:12 18° 64° (ENE) 03:16:22
ISS 29 May 03:12:30 03:15:45 63° 218° (SW) 03:19:00 437.550
UKube-1 29 May 03:17:07 03:20:14 19° 266° (W) 03:23:22 .
ITUPSAT 1 29 May 03:18:35 03:23:01 39° 69° (ENE) 03:27:28 437.325
O/OREOS (USA 219) 29 May 03:34:28 03:37:33 18° 100° (E) 03:40:38 437.305
BEESAT 29 May 03:49:53 03:54:38 82° 74° (ENE) 03:59:26 436.000
Tancredo 1 29 May 03:51:46 03:53:38 15° 227° (SW) 03:55:29 437.200
YUBILEINY 29 May 04:00:18 04:07:18 26° 295° (WNW) 04:14:23 435.215
RS-15 29 May 04:01:26 04:13:34 69° 309° (NW) 04:25:58 29.354- 29.394
CUBESAT XI-V 29 May 04:04:32 04:06:37 13° 61° (ENE) 04:08:43 437.345
Gurwin Techsat 1B 29 May 04:09:51 04:15:06 61° 288° (WNW) 04:20:19 435.225
Oscar 19 29 May 04:10:48 04:15:30 36° 292° (WNW) 04:20:09 437.125/150
PCSat 29 May 04:23:07 04:28:25 50° 55° (NE) 04:33:40 145.827
AO-85 29 May 04:35:17 04:39:03 33° 117° (ESE) 04:42:40 145.980
MOZHAYETS 4 29 May 04:45:30 04:49:58 49° 261° (W) 04:54:29
ITUPSAT 1 29 May 04:57:11 05:00:57 23° 266° (W) 05:04:45 437.325
AO-7 29 May 04:57:43 05:05:49 50° 101° (ESE) 05:13:52 .
O/OREOS (USA 219) 29 May 05:12:08 05:16:34 47° 297° (WNW) 05:21:01 437.305
ITAMSAT 1 29 May 05:17:52 05:23:08 84° 105° (ESE) 05:28:21 435.822/435.867
KKS-1 29 May 05:18:25 05:22:45 57° 73° (ENE) 05:27:06 437.445
BEESAT 2 29 May 05:27:40 05:29:50 14° 110° (ESE) 05:32:01 435.950
BEESAT 29 May 05:31:58 05:33:00 11° 272° (W) 05:34:02 436.000
CUBESAT XI-V 29 May 05:38:38 05:43:21 77° 258° (WSW) 05:48:05 437.345
BEESAT 3 29 May 05:39:25 05:43:16 53° 119° (ESE) 05:47:11 437.485
STARS 29 May 05:41:36 05:45:43 43° 71° (ENE) 05:49:51 437.465
SO-50 29 May 05:48:35 05:50:50 13° 35° (NE) 05:53:03 436.795
PCSat 29 May 06:07:09 06:11:28 24° 252° (WSW) 06:15:46 145.827
AO-85 29 May 06:16:02 06:19:27 25° 313° (NW) 06:22:48 145.980
RS-15 29 May 06:18:30 06:28:56 30° 338° (NNW) 06:39:23 29.354- 29.394
DOVE 4 29 May 06:20:34 06:22:16 12° 91° (E) 06:23:58 437.250
STRAND 1 29 May 06:36:18 06:37:26 11° 56° (ENE) 06:38:34 437.568
XW-2B 29 May 06:48:09 06:49:35 12° 90° (E) 06:51:00 145.730 - 145.750
AO-7 29 May 06:50:48 06:58:23 40° 300° (WNW) 07:05:58 .
KKS-1 29 May 06:57:25 06:59:39 14° 269° (W) 07:01:55 437.445
XW-2F 29 May 06:57:55 07:00:11 15° 92° (E) 07:02:26 145.980 - 146.000
ITAMSAT 1 29 May 06:59:14 07:01:52 14° 302° (WNW) 07:04:32 435.822/435.867
XW-2C 29 May 07:00:57 07:03:33 17° 93° (E) 07:06:08 145.795 - 145.815
KAITUO 1B 29 May 07:00:58 07:02:47 13° 91° (E) 07:04:37 145.475/437.950
BEESAT 2 29 May 07:03:13 07:07:07 53° 307° (NW) 07:11:06 435.950
BEESAT 3 29 May 07:18:20 07:21:09 18° 318° (NW) 07:24:00 437.485
STARS 29 May 07:19:19 07:22:16 18° 267° (W) 07:25:13 437.465
SO-50 29 May 07:27:33 07:32:04 74° 54° (NE) 07:36:35 436.795
HO-68 29 May 07:27:44 07:28:59 10° 85° (E) 07:30:14 435.675
CUTE-I 29 May 07:33:42 07:38:39 37° 98° (E) 07:43:35 437.470
LilacSat-2 29 May 07:41:27 07:45:17 55° 100° (E) 07:49:04 437.200
DOVE 4 29 May 07:56:12 08:00:19 57° 285° (WNW) 08:04:33 437.250
NO-84 29 May 07:58:46 08:02:18 24° 127° (SE) 08:05:49 435.350 FM
STRAND 1 29 May 08:10:38 08:15:43 77° 75° (ENE) 08:20:51 437.568
XW-2D 29 May 08:12:13 08:16:02 61° 285° (WNW) 08:19:49 145.860 - 145.880
CUBEBUG 2 29 May 08:16:25 08:16:37 10° 88° (E) 08:16:49 437.445
XW-2B 29 May 08:20:19 08:24:04 50° 287° (WNW) 08:27:47 145.730 - 145.750
NUDT-PHONESAT 29 May 08:20:34 08:24:20 64° 284° (WNW) 08:28:02 437.300
M-CUBED/EXP-1 PRIME 29 May 08:29:34 08:33:06 29° 65° (ENE) 08:36:26 437.505
XW-2F 29 May 08:30:53 08:34:29 39° 288° (WNW) 08:38:03 145.980 - 146.000
KAITUO 1B 29 May 08:33:24 08:37:02 43° 287° (WNW) 08:40:37 145.475/437.950
XW-2C 29 May 08:34:19 08:37:51 34° 289° (WNW) 08:41:19 145.795 - 145.815
RS-15 29 May 08:36:47 08:46:49 27° 14° (NNE) 08:56:36 29.354- 29.394
CUTE 1.7 + AOD 2 29 May 08:40:48 08:44:44 35° 97° (E) 08:48:36 437.475
AAUSAT CUBESAT 2 29 May 08:42:30 08:42:58 10° 89° (E) 08:43:27 437.432
AO-73 29 May 09:09:54 09:11:38 12° 89° (E) 09:13:23 145.935
SO-50 29 May 09:10:00 09:11:55 13° 252° (WSW) 09:13:51 436.795
HO-68 29 May 09:10:47 09:17:59 67° 103° (ESE) 09:25:07 435.675
CUTE-I 29 May 09:13:58 09:18:33 30° 294° (WNW) 09:23:08 437.470
LilacSat-2 29 May 09:17:31 09:19:04 12° 297° (WNW) 09:20:37 437.200
SEEDS 29 May 09:24:06 09:28:19 70° 101° (E) 09:32:29 437.485
ZACube-1 29 May 09:24:23 09:27:42 19° 92° (E) 09:31:00 437.345
UNISAT 6 29 May 09:32:45 09:34:25 12° 61° (ENE) 09:36:06 437.425
NO-84 29 May 09:35:21 09:39:42 57° 324° (NW) 09:43:55 435.350 FM
XW-2A 29 May 09:37:22 09:40:43 48° 286° (WNW) 09:44:03 145.665 - 145.685
FO-29 29 May 09:39:59 09:43:36 19° 60° (ENE) 09:47:20 435.910
CUBEBUG 2 29 May 09:49:07 09:53:46 84° 282° (WNW) 09:58:29 437.445
UWE-3 29 May 09:53:06 09:57:42 66° 101° (E) 10:02:21 435.000/436.395/437.385
STRAND 1 29 May 09:53:16 09:55:29 13° 271° (W) 09:57:42 437.568
M-CUBED/EXP-1 PRIME 29 May 10:04:08 10:07:30 24° 258° (WSW) 10:10:42 437.505
Oscar 11 29 May 10:13:37 10:17:47 43° 98° (E) 10:21:55 .
AAUSAT CUBESAT 2 29 May 10:14:46 10:18:52 66° 285° (WNW) 10:22:57 437.432
CUTE 1.7 + AOD 2 29 May 10:17:06 10:20:20 21° 294° (WNW) 10:23:32 437.475
PRISM 29 May 10:18:02 10:21:57 44° 72° (ENE) 10:25:53 437.425
TIGRISAT 29 May 10:33:45 10:37:51 46° 72° (ENE) 10:42:03 435.000
AO-73 29 May 10:43:46 10:48:20 70° 284° (WNW) 10:52:52 145.935
